Regional Weather Roundup
Issued by NWS

Home | Current Version | Previous Version | Text Only | Print | Product List | Glossary On
Versions: 1 2 3 4 5 6 7 8 9 10 11 12 13 14 15 16 17 18 19 20 21 22 23 24 25 26 27 28 29 30 31 32 33 34 35 36 37 38 39 40 41 42 43 44 45 46 47 48 49 50
000
ASUS43 KDTX 220701
RWRMI
MICHIGAN HOURLY REGIONAL WEATHER ROUNDUP
NATIONAL WEATHER SERVICE DETROIT/PONTIAC MI
200 AM EST SAT NOV 22 2014

NOTE: "FAIR" INDICATES FEW OR NO CLOUDS BELOW 12,000 FEET WITH NO
SIGNIFICANT WEATHER AND/OR OBSTRUCTION TO VISIBILITY.

MIZ047>049-052>055-059>063-066>070-074>076-081>083-220800-
SOUTHEAST LOWER MICHIGAN

CITY           SKY/WX    TMP DP  RH WIND       PRES   REMARKS
ADRIAN         CLOUDY    21  12  68 SW7       30.28F WCI  12
ALMA           CLOUDY    23  15  71 S10       30.18F WCI  12
ANN ARBOR      MOCLDY    17   9  70 S6        30.26F WCI   9
BAD AXE        MOCLDY    25  13  61 S13       30.18F WCI  13
DETROIT CITY   PTCLDY    28  13  53 S9        30.28F WCI  19
DETROIT        MOCLDY    21  12  68 S8        30.29F WCI  11
FLINT          MOCLDY    25  11  55 S10       30.21F WCI  15
GROSSE ILE     MOCLDY    27  18  69 S16       30.28F WCI  14
HILLSDALE      CLOUDY    25  12  58 S12G17    30.21F WCI  14
HOWELL         CLOUDY    23  13  64 S10       30.20F WCI  13

CITY           SKY/WX    TMP DP  RH WIND       PRES   REMARKS
JACKSON        CLOUDY    27  12  53 S12       30.21F WCI  17
LAMBERTVILLE   PTCLDY    23  12  63 S5        30.29F WCI  17
LANSING        CLOUDY    26  13  57 S15       30.19F WCI  14
LAPEER         FAIR      23  12  63 S7        30.21F WCI  14
MASON          CLOUDY    26  14  58 S8        30.21F WCI  18
MONROE         MOCLDY    19  12  73 S3        30.28F
MT. CLEMENS    MOCLDY    22  15  75 S8        30.25F WCI  13
PONTIAC        MOCLDY    21  10  62 S9        30.23F WCI  11
PORT HOPE        N/A     26  11  52 SW8G17    30.16F WCI  18
PORT HURON     PTCLDY    25  16  68 S9        30.26F WCI  15
TRI CITIES     MOCLDY    23  12  62 S13G18    30.18F WCI  11
SAGINAW HB     MOCLDY    25  14  63 S14       30.18F WCI  13
$$
MIZ043>046-050>051-056>058-064>065-071>073-077>080-220800-
SOUTHWEST LOWER MICHIGAN

CITY           SKY/WX    TMP DP  RH WIND       PRES   REMARKS
BATTLE CREEK   CLOUDY    27  14  58 S10       30.19F WCI  17
BENTON HARBOR  CLOUDY    32  14  47 S10       30.17F WCI  24
BIG RAPIDS     CLOUDY    27  16  62 S7        30.10F WCI  19
COLDWATER      CLOUDY    28  15  56 S7        30.21F WCI  21
FREMONT        CLOUDY    26  13  59 S7        30.13F WCI  18
HOLLAND        CLOUDY    31  16  54 S8        30.16F WCI  23
GRAND RAPIDS   CLOUDY    28  14  55 S9        30.16F WCI  19
IONIA          CLOUDY    28  16  61 S8        30.16F WCI  19
KALAMAZOO      CLOUDY    27  16  63 S14       30.19F WCI  16
LUDINGTON      CLOUDY    37  29  74 S17G28    30.07F WCI  27
MARSHALL       CLOUDY    25  13  58 S7        30.20F WCI  18
MOUNT PLEASANT CLOUDY    24  14  64 S6        30.15F WCI  17
MUSKEGON       CLOUDY    32  21  64 SE9       30.13F WCI  24
SOUTH HAVEN    CLOUDY    32  17  53 S10       30.17F WCI  24
$$
MIZ016>042-220800-
NORTHERN LOWER MICHIGAN

CITY           SKY/WX    TMP DP  RH WIND       PRES   REMARKS
ALPENA         MOCLDY    27  14  58 SW15G22   30.04F WCI  15
BEAVER ISLAND  CLOUDY    37  31  82 S13G22    29.94F WCI  28
BELLAIRE       CLOUDY    31  21  67 S12G17    30.03F WCI  21
CADILLAC       CLOUDY    24  18  77 S13G18    30.04F WCI  13
CHARLEVOIX     CLOUDY    32  24  71 S20G31    30.01F WCI  20
FRANKFORT      CLOUDY    33  26  76 S12G21    30.02F WCI  24
GAYLORD        CLOUDY    25  17  72 SW17G26   30.00F WCI  12
GRAYLING       MOCLDY    26  15  62 S7G16     30.05F WCI  18
HARBOR SPRINGS CLOUDY    30  22  70 SW10G21   30.00F WCI  21
HOUGHTON LAKE  MOCLDY    25  12  58 SW10      30.08F WCI  15
MANISTEE       CLOUDY    30  19  64 S6        30.06F WCI  24
OSCODA         MOCLDY    25  14  63 SW18G26   30.12F WCI  12
PELLSTON       MOCLDY    31  21  66 SW8G18    29.98F WCI  23
ROGERS CITY    CLOUDY    28  20  71 SW12G22   30.01F WCI  18
TRAVERSE CITY  CLOUDY    31  21  66 S8G18     30.01F WCI  23
$$
MIZ007>008-015-220800-
EASTERN UPPER MICHIGAN

CITY           SKY/WX    TMP DP  RH WIND       PRES   REMARKS
KINROSS        CLOUDY    32  30  93 SW12G22   29.91F WCI  23
MACKINAC ISLAN MOCLDY    32  24  71 SW17G31   29.95F WCI  21
NEWBERRY       CLOUDY    34  28  80 SW23G37   29.87F HAZE    WCI  22
S. S. MARIE    CLOUDY    32  26  78 S9        29.90F WCI  24
MUNISING         N/A     31  14  49 S9G20     29.85S WCI  23
$$
MIZ004>006-011>014-085-220800-
CENTRAL UPPER MICHIGAN

CITY           SKY/WX    TMP DP  RH WIND       PRES   REMARKS
MANISTIQUE     CLOUDY    33  22  63 SW17G31   29.90F WCI  23
ESCANABA       CLOUDY    30  16  55 SW15G24   29.90F WCI  19
MENOMINEE      CLOUDY    30  16  55 SW16G23   29.94F WCI  19
SAWYER-GWINN   CLOUDY    26  16  67 S18       29.81S WCI  12
$$
MIZ001>003-009>011-084-220800-
WESTERN UPPER MICHIGAN

CITY           SKY/WX    TMP DP  RH WIND       PRES   REMARKS
IRON MOUNTAIN  CLOUDY    28  16  60 S12       29.85F WCI  18
HOUGHTON       CLOUDY    31  20  63 SW12G21   29.71F WCI  22
COPPER HARBOR    N/A     31  19  61 VRB7      29.72F WCI  24
IRONWOOD       CLOUDY    30  25  80 S18G24    29.73F WCI  18
$$

ABBREVIATIONS USED IN REMARKS
   TC - TEMPERATURE IN CELSIUS
  WCI - WIND CHILL INDEX
   HX - HEAT INDEX
  VSB - VISIBILITY



USA.gov is the U.S. government's official web portal to all federal, state and local government web resources and services.